[[{"header":{"parameterUnit":"m.s-1","parameterCategory":1,"la1":30.2991,"la2":30.254,"lo1":-89.0895,"lo2":-89.0444,"dy":0.0017,"dx":0.0017,"nx":28,"ny":28,"refTime":"2024-06-07T09:00:00:Z","depth":0,"parameterNumber":2,"parameterNumberName":"U-component_of_WINDS"},"data":[0,0,0,0,0,0,0,0,0,0,0,0,0,0,0,0,0,0,0,0,0,0,0,0,0,0,0,0,0,0,0,0,0,0,0,0,0,0,0,0,0,0,0,0,0,0,0,0,0,0,0,0,0,0,0,0,0,0,-3.0144,-3.0144,0,-3.0123,-3.0123,-3.0123,-2.9961,-2.9957,-2.9953,-2.9949,-2.9931,-2.9935,-2.9938,0,0,0,0,0,0,0,0,0,0,0,0,0,-3.0046,-3.0049,-3.0144,-3.0144,-3.0143,-3.0123,-3.0123,-3.0123,-2.9962,-2.9957,-2.9952,-2.9947,-2.993,-2.9934,-2.9938,0,0,0,0,0,0,0,0,0,0,0,0,0,-3.0064,-3.005,-3.0144,-3.006,-3.0053,-3.0123,-3.0123,-3.0123,-2.9963,-2.9957,-2.9951,-2.9945,-2.9929,-2.9934,-2.9939,-3.0089,0,0,-2.9953,-2.9956,0,0,0,0,0,0,0,0,-3.0063,-3.0067,-3.0073,-3.0066,-3.0058,-3.0038,-3.0082,-3.0111,-2.9964,-2.9997,-2.9949,-2.9942,-2.9972,-2.9973,-2.9982,-3.0088,-3.0087,-2.9954,-2.9957,-2.9959,-2.996,0,0,0,0,0,0,0,-3.0062,-3.0067,-3.0136,-3.0073,-3.0064,-3.0025,-3.0021,-3.0087,-3.0019,-2.9994,-2.9982,-2.9981,-2.9967,-2.9978,-2.9981,-3.0087,-2.9954,-2.9958,-2.9961,-2.9963,-3.0314,-3.032,0,0,0,0,0,0,-3.0072,-3.0067,-3.0136,-3.0135,-3.0045,-3.0031,-3.0027,-3.0051,-3.0017,-3.0006,-2.9987,-2.9974,-2.9973,-2.9975,-2.998,-3.0153,-2.9959,-2.9964,-2.9966,-3.0308,-3.0316,-3.0322,0,0,0,0,0,0,-3.007,-3.008,-3.0137,-3.0098,-3.0102,-3.0039,-3.0068,-3.0054,-3.0064,-3.0012,-2.9999,-3.0011,-2.9968,-2.9973,-3.0062,-3.015,-2.9966,-2.997,-3.03,-3.031,-3.0319,-3.0501,0,0,0,0,0,0,-3.0068,-3.008,-3.0136,-3.01,-3.0105,-3.022,-3.0073,-3.0057,-3.0073,-3.0056,-3.0031,-3.0021,-2.9964,-3.0056,-3.0067,-3.0153,-2.9974,-3.0292,-3.0305,-3.0316,-3.0487,-3.0516,-3.054,0,0,0,0,0,-3.0065,-3.0189,-3.014,-3.0149,-3.0173,-3.0226,-3.0228,-3.0159,-3.0081,-3.0137,-3.0103,-3.0022,-3.0139,-3.0067,-3.0078,-3.0167,-3.0286,-3.0301,-3.0315,-3.0475,-3.051,-3.054,0,0,0,0,0,0,-3.0238,-3.0183,-3.0127,-3.0243,-3.024,-3.0198,-3.0267,-3.0198,-3.0218,-3.0202,-3.0116,-3.0112,-3.0215,-3.0199,-3.012,-3.031,-3.0198,-3.0216,-3.0316,-3.0349,-3.0375,-3.0377,-2.9978,0,0,0,0,0,-3.0289,-3.0335,-3.0284,-3.0391,-3.0393,-3.0331,-3.0351,-3.0297,-3.0291,-3.0289,-3.0262,-3.026,-3.0296,-3.0322,-3.0352,-3.0484,-3.0476,-3.0551,-3.0577,-3.0599,-3.0616,-3.0684,-3.0716,-3.037,-3.037,-3.0369,0,0,-3.0395,-3.0371,-3.0406,-3.0425,-3.0417,-3.0467,-3.0331,-3.039,-3.0426,-3.0299,-3.0381,-3.0361,-3.0353,-3.0465,-3.0513,-3.0456,-3.0709,-3.0618,-3.0636,-3.064,-3.0702,-3.0735,-3.0764,-3.0379,-3.0378,-3.0376,0,0,-3.0615,-3.0602,-3.0689,-3.0683,-3.0671,-3.0628,-3.065,-3.0618,-3.06,-3.0681,-3.0586,-3.0629,-3.0693,-3.0691,-3.0698,-3.0918,-3.0844,-3.093,-3.1069,-3.1137,-3.1164,-3.1188,-3.1266,-3.1295,-3.0946,-3.0947,-3.0947,0,-3.075,-3.082,-3.0742,-3.0807,-3.0819,-3.0705,-3.0792,-3.0791,-3.0791,-3.0802,-3.0737,-3.0814,-3.0801,-3.0911,-3.0964,-3.0974,-3.0996,-3.0932,-3.1167,-3.119,-3.1211,-3.1284,-3.1314,-3.0957,-3.0956,-3.0955,-3.0954,0,-3.0986,-3.1037,-3.1109,-3.111,-3.1129,-3.1206,-3.114,-3.117,-3.1115,-3.108,-3.1164,-3.1144,-3.1168,-3.119,-3.1138,-3.1293,-3.1257,-3.1182,-3.1067,-3.1256,-3.1323,-3.1351,-3.0972,-3.0968,-3.0965,-3.0963,0,0,-3.1314,-3.127,-3.1298,-3.1297,-3.1275,-3.1314,-3.1385,-3.1407,-3.1434,-3.1438,-3.1496,-3.1553,-3.1482,-3.1491,-3.1437,-3.1497,-3.1671,-3.1413,-3.1411,-3.1461,-3.1841,-3.1898,-3.1932,-3.1622,-3.1627,-3.1631,-3.1841,0,-3.1525,-3.1643,-3.1575,-3.1704,-3.175,-3.1641,-3.1704,-3.1698,-3.1667,-3.1702,-3.1668,-3.171,-3.1613,-3.1618,-3.1672,-3.1639,-3.1746,-3.1623,-3.1676,-3.1679,-3.1681,-3.1967,-3.2027,-3.2226,-3.1867,-3.1871,-3.1875,0,-3.1787,-3.1801,-3.1934,-3.1903,-3.1919,-3.1976,-3.1991,-3.2026,-3.2017,-3.1991,-3.2001,-3.1932,-3.2001,-3.1888,-3.1982,-3.1899,-3.1917,-3.1904,-3.191,-3.1912,-3.1788,-3.1977,-3.2288,-3.2318,-3.1916,-3.1912,-3.1909,0,-3.2013,-3.2064,-3.215,-3.2153,-3.2119,-3.2161,-3.215,-3.2135,-3.2153,-3.2166,-3.2176,-3.2199,-3.2211,-3.223,-3.2169,-3.2093,-3.2271,-3.2154,-3.2251,-3.2253,-3.2294,-3.2292,-3.2612,-3.2306,-3.2306,-3.2305,-3.2305,0,-3.2255,-3.2341,-3.2251,-3.2304,-3.2397,-3.2318,-3.2412,-3.2389,-3.2377,-3.2424,-3.2332,-3.2379,-3.2296,-3.2334,-3.2288,-3.2372,-3.2379,-3.2359,-3.2346,-3.2367,-3.237,-3.2378,-3.2362,-3.2313,-3.2311,-3.231,-3.2309,0,-3.2523,-3.2466,-3.2552,-3.2513,-3.2505,-3.2575,-3.2542,-3.259,-3.2552,-3.2613,-3.2623,-3.2565,-3.2605,-3.2547,-3.2582,-3.255,-3.2666,-3.2632,-3.2669,-3.2659,-3.276,-3.2751,-3.3096,-3.3137,-3.2806,-3.2809,-3.2812,0,-3.2681,-3.2744,-3.2711,-3.2735,-3.2729,-3.2769,-3.2786,-3.2711,-3.2733,-3.2728,-3.2777,-3.2809,-3.2831,-3.2901,-3.2863,-3.2889,-3.2854,-3.2973,-3.2857,-3.2877,-3.2855,-3.2852,-3.2858,-3.2997,-3.3001,-3.3004,-3.3007,0,-3.2968,-3.2937,-3.2964,-3.2982,-3.3005,-3.3016,-3.302,-3.3046,-3.2967,-3.2997,-3.3036,-3.3053,-3.3088,-3.3121,-3.3137,-3.3126,-3.3054,-3.3044,-3.3067,-3.309,-3.3108,-3.3099,-3.2734,-3.3036,-3.3033,-3.3031,-3.3029,-3.3028,-3.3185,-3.3236,-3.322,-3.3254,-3.3249,-3.3256,-3.3298,-3.3266,-3.3297,-3.3318,-3.3273,-3.3324,-3.3313,-3.3327,-3.3324,-3.3363,-3.3311,-3.3346,-3.3354,-3.3364,-3.338,-3.3103,-3.3366,-3.3365,-3.3364,-3.3363,-3.3363,0,-3.3467,-3.3451,-3.3483,-3.3491,-3.3518,-3.3447,-3.3448,-3.3476,-3.3521,-3.3517,-3.354,-3.3586,-3.3618,-3.3582,-3.3608,-3.3646,-3.3614,-3.3655,-3.3651,-3.365,-3.3425,-3.3401,-3.3681,-3.3681,-3.3681,-3.3681,-3.3681,-3.3681,-3.3616,-3.3698,-3.3665,-3.3744,-3.3728,-3.3776,-3.3782,-3.3788,-3.3784,-3.3839,-3.3864,-3.384,-3.3824,-3.3847,-3.3874,-3.3862,-3.3876,-3.3929,-3.3907,-3.3697,-3.3666,-3.3636,-3.3613,-3.3933,-3.3933,-3.4128,-3.413,-3.4131]},{"header":{"parameterUnit":"m.s-1","parameterCategory":1,"la1":30.2991,"la2":30.254,"lo1":-89.0895,"lo2":-89.0444,"dy":0.0017,"dx":0.0017,"nx":28,"ny":28,"refTime":"2024-06-07T09:00:00:Z","depth":0,"parameterNumber":3,"parameterNumberName":"V-component_of_WINDS"},"data":[0,0,0,0,0,0,0,0,0,0,0,0,0,0,0,0,0,0,0,0,0,0,0,0,0,0,0,0,0,0,0,0,0,0,0,0,0,0,0,0,0,0,0,0,0,0,0,0,0,0,0,0,0,0,0,0,0,0,-0.8347,-0.8347,0,-0.8365,-0.8365,-0.8365,-0.8415,-0.8416,-0.8417,-0.8418,-0.8434,-0.8433,-0.8433,0,0,0,0,0,0,0,0,0,0,0,0,0,-0.8353,-0.8352,-0.8347,-0.8347,-0.8347,-0.8365,-0.8365,-0.8365,-0.8414,-0.8416,-0.8417,-0.8418,-0.8434,-0.8434,-0.8433,0,0,0,0,0,0,0,0,0,0,0,0,0,-0.8358,-0.8352,-0.8347,-0.8374,-0.8377,-0.8364,-0.8365,-0.8365,-0.8414,-0.8416,-0.8417,-0.8419,-0.8434,-0.8434,-0.8433,-0.8395,0,0,-0.843,-0.843,0,0,0,0,0,0,0,0,-0.8358,-0.8358,-0.837,-0.8372,-0.8375,-0.8389,-0.8373,-0.8375,-0.8414,-0.84,-0.8418,-0.842,-0.8418,-0.8418,-0.8418,-0.8396,-0.8396,-0.843,-0.843,-0.8429,-0.8429,0,0,0,0,0,0,0,-0.8357,-0.8357,-0.8354,-0.837,-0.8373,-0.8384,-0.8387,-0.8373,-0.8399,-0.8401,-0.8405,-0.8406,-0.8419,-0.8419,-0.8419,-0.8397,-0.843,-0.8429,-0.8429,-0.8428,-0.8342,-0.834,0,0,0,0,0,0,-0.8353,-0.8357,-0.8353,-0.8354,-0.837,-0.8383,-0.8386,-0.8383,-0.84,-0.8404,-0.8405,-0.8409,-0.8419,-0.842,-0.8419,-0.8374,-0.8429,-0.8428,-0.8428,-0.8344,-0.8342,-0.834,0,0,0,0,0,0,-0.8353,-0.8353,-0.8352,-0.8356,-0.8357,-0.8381,-0.8377,-0.8382,-0.8382,-0.8403,-0.8407,-0.84,-0.8421,-0.8421,-0.84,-0.8376,-0.8428,-0.8427,-0.8346,-0.8343,-0.8341,-0.8285,0,0,0,0,0,0,-0.8353,-0.8352,-0.8339,-0.8356,-0.8357,-0.8334,-0.8376,-0.8382,-0.838,-0.8385,-0.8399,-0.8403,-0.8422,-0.8401,-0.8399,-0.8376,-0.8426,-0.8348,-0.8345,-0.8342,-0.8289,-0.8281,-0.8274,0,0,0,0,0,-0.8353,-0.8322,-0.8338,-0.8337,-0.8341,-0.8332,-0.8333,-0.8356,-0.8378,-0.8364,-0.8377,-0.8402,-0.8379,-0.8399,-0.8397,-0.8373,-0.835,-0.8346,-0.8342,-0.8293,-0.8283,-0.8274,0,0,0,0,0,0,-0.8302,-0.8325,-0.8343,-0.8317,-0.8322,-0.8341,-0.8324,-0.8345,-0.8344,-0.8348,-0.8377,-0.838,-0.8355,-0.8362,-0.8384,-0.8336,-0.8368,-0.8364,-0.8332,-0.8322,-0.8315,-0.8312,-0.8426,0,0,0,0,0,-0.8287,-0.8279,-0.83,-0.8275,-0.8277,-0.83,-0.8297,-0.8315,-0.8321,-0.8323,-0.8335,-0.834,-0.8333,-0.8329,-0.8324,-0.8291,-0.8294,-0.8273,-0.8266,-0.8259,-0.8254,-0.8235,-0.8226,-0.8327,-0.8327,-0.8327,0,0,-0.8257,-0.8269,-0.8262,-0.8265,-0.8271,-0.8261,-0.8301,-0.8289,-0.8281,-0.8321,-0.8302,-0.8311,-0.8318,-0.8291,-0.8279,-0.8296,-0.8227,-0.8254,-0.8249,-0.8247,-0.823,-0.822,-0.8212,-0.8324,-0.8324,-0.8325,0,0,-0.8197,-0.8206,-0.8185,-0.8191,-0.82,-0.8215,-0.821,-0.8225,-0.8232,-0.8214,-0.8243,-0.8234,-0.8223,-0.8226,-0.8227,-0.8166,-0.8188,-0.8164,-0.8123,-0.8104,-0.8096,-0.8089,-0.8065,-0.8057,-0.816,-0.816,-0.8159,0,-0.8158,-0.8145,-0.8172,-0.8157,-0.8156,-0.8193,-0.8171,-0.8175,-0.8182,-0.818,-0.8199,-0.8185,-0.8192,-0.8165,-0.815,-0.815,-0.8143,-0.8162,-0.8095,-0.8088,-0.8082,-0.806,-0.8051,-0.8156,-0.8157,-0.8157,-0.8157,0,-0.8096,-0.8085,-0.8068,-0.8073,-0.8071,-0.8052,-0.8076,-0.807,-0.8087,-0.81,-0.808,-0.809,-0.8087,-0.8083,-0.81,-0.8057,-0.8067,-0.809,-0.8123,-0.8069,-0.8048,-0.804,-0.8152,-0.8153,-0.8154,-0.8155,0,0,-0.8002,-0.8023,-0.8016,-0.8018,-0.803,-0.8022,-0.8005,-0.8003,-0.7996,-0.8,-0.7984,-0.7974,-0.7995,-0.7995,-0.8013,-0.7997,-0.7945,-0.8022,-0.8023,-0.8005,-0.7896,-0.7877,-0.7867,-0.7961,-0.796,-0.7958,-0.7895,0,-0.7944,-0.7916,-0.7939,-0.7906,-0.7896,-0.793,-0.7915,-0.792,-0.7932,-0.7924,-0.7937,-0.7928,-0.7958,-0.7957,-0.7943,-0.7955,-0.7924,-0.796,-0.7945,-0.7944,-0.794,-0.7856,-0.7836,-0.7776,-0.7887,-0.7886,-0.7885,0,-0.7871,-0.7871,-0.7837,-0.785,-0.7847,-0.7833,-0.7831,-0.7824,-0.783,-0.784,-0.7839,-0.7861,-0.7844,-0.7877,-0.7853,-0.7877,-0.7872,-0.7877,-0.7875,-0.7873,-0.791,-0.7849,-0.7757,-0.7747,-0.7873,-0.7874,-0.7875,0,-0.7803,-0.7795,-0.7773,-0.7774,-0.779,-0.7778,-0.7784,-0.7792,-0.7788,-0.7787,-0.7785,-0.7782,-0.7779,-0.7776,-0.7796,-0.7819,-0.7768,-0.7804,-0.7773,-0.7772,-0.7759,-0.7759,-0.7662,-0.776,-0.776,-0.776,-0.776,0,-0.7734,-0.7711,-0.7743,-0.7729,-0.7704,-0.7731,-0.7705,-0.7714,-0.7721,-0.7708,-0.7738,-0.7726,-0.7754,-0.7744,-0.776,-0.7736,-0.7735,-0.7741,-0.7745,-0.7737,-0.7735,-0.7732,-0.7736,-0.7758,-0.7758,-0.7759,-0.7759,0,-0.7653,-0.7674,-0.7652,-0.7668,-0.7671,-0.7652,-0.7665,-0.7653,-0.7666,-0.765,-0.7648,-0.7668,-0.7658,-0.7678,-0.7671,-0.7681,-0.7646,-0.7658,-0.7644,-0.7646,-0.7614,-0.7616,-0.751,-0.7496,-0.7605,-0.7604,-0.7603,0,-0.7606,-0.759,-0.7604,-0.7598,-0.7602,-0.7592,-0.7589,-0.7615,-0.7609,-0.7614,-0.76,-0.7593,-0.7588,-0.7569,-0.7583,-0.7577,-0.7587,-0.7551,-0.7586,-0.7578,-0.7584,-0.7583,-0.7581,-0.7542,-0.7541,-0.754,-0.7539,0,-0.752,-0.7531,-0.7525,-0.7522,-0.7517,-0.7516,-0.7517,-0.751,-0.7538,-0.753,-0.752,-0.7516,-0.7508,-0.7499,-0.7497,-0.7501,-0.7523,-0.7528,-0.752,-0.7511,-0.7502,-0.7504,-0.7621,-0.753,-0.7531,-0.7532,-0.7532,-0.7533,-0.7453,-0.7439,-0.7447,-0.7439,-0.7442,-0.7442,-0.743,-0.7442,-0.7434,-0.743,-0.7446,-0.7432,-0.7437,-0.7435,-0.7437,-0.7426,-0.7442,-0.7431,-0.7428,-0.7424,-0.7418,-0.7506,-0.7426,-0.7426,-0.7426,-0.7426,-0.7427,0,-0.7366,-0.7373,-0.7365,-0.7366,-0.7359,-0.7382,-0.7384,-0.7376,-0.7364,-0.7367,-0.7361,-0.7349,-0.734,-0.7353,-0.7346,-0.7334,-0.7344,-0.7331,-0.7331,-0.7331,-0.7405,-0.7411,-0.7323,-0.7323,-0.7323,-0.7323,-0.7323,-0.7323,-0.732,-0.7297,-0.7308,-0.7286,-0.7293,-0.7279,-0.7278,-0.7277,-0.728,-0.7265,-0.7258,-0.7267,-0.7273,-0.7267,-0.7259,-0.7263,-0.7258,-0.7241,-0.7248,-0.7316,-0.7326,-0.7336,-0.7342,-0.724,-0.724,-0.7175,-0.7175,-0.7174]}]]